Theta_e
321 320 320 319 319 319 318 318 317 317 316 316 315 316 316 318 319 321 322 334 334 334 333 332 332 332 332 332 329 326 324 320 319 324 328 330 332 334 333 329 331 331 332
323 322 321 321 320 323 322 321 320 318 317 316 316 316 316 316 317 319 322 331 335 334 334 333 333 333 333 332 331 328 324 324 321 322 325 328 330 333 334 332 330 331 332
330 327 324 327 328 332 331 330 330 327 325 323 323 319 319 320 322 322 320 325 335 333 334 333 334 334 334 333 330 328 327 324 324 323 324 324 325 331 334 333 329 329 330
332 332 331 332 334 334 334 336 337 336 335 335 333 329 327 329 330 331 325 324 333 335 335 334 328 332 334 333 331 330 328 326 324 325 325 323 323 323 331 333 331 329 330
332 333 333 334 336 336 336 338 339 340 340 339 337 334 332 334 335 333 326 334 336 335 335 329 329 327 332 332 332 329 328 328 324 325 324 324 324 324 323 330 333 331 329
335 334 333 333 334 335 338 339 340 341 341 341 338 336 334 335 336 333 333 339 337 335 334 333 332 331 332 331 331 329 328 328 329 324 326 325 326 327 325 327 332 331 328
334 336 333 332 331 332 336 340 343 342 342 342 338 337 335 335 336 335 338 337 335 335 336 333 332 332 331 329 329 330 329 329 329 329 325 325 327 328 328 327 326 328 330
337 335 333 330 331 333 338 340 341 342 342 341 339 337 336 335 336 336 335 336 336 336 334 333 333 332 331 330 330 329 329 328 329 329 328 325 326 326 327 328 327 326 329
336 336 329 328 330 331 335 337 339 341 340 341 340 337 336 336 336 335 335 336 336 335 333 332 332 332 331 330 331 328 329 328 328 329 328 325 325 326 327 326 324 324 329
334 335 327 328 330 331 335 336 339 339 341 342 340 338 337 336 335 333 332 332 331 331 331 329 329 331 331 331 329 327 328 328 329 329 328 325 325 326 327 324 320 326 330
333 332 328 328 326 326 332 335 336 339 342 343 340 340 338 336 335 336 335 334 332 332 329 328 329 329 329 329 327 326 326 329 329 327 325 324 325 326 326 322 320 330 331
331 326 327 326 325 325 328 329 338 342 343 341 340 338 337 336 336 336 334 335 335 332 328 328 327 327 327 326 325 325 326 327 328 325 324 324 325 325 326 322 326 332 332
326 326 326 325 325 326 328 337 342 344 341 340 339 337 337 335 335 334 335 335 333 330 328 328 327 324 326 327 326 325 327 327 326 325 324 324 324 324 326 322 330 332 331
325 326 326 326 327 334 340 343 344 342 341 339 338 336 335 334 334 334 334 334 333 329 329 328 326 325 327 327 326 327 326 326 326 326 324 323 325 327 327 324 331 330 327
326 326 326 327 336 343 344 344 343 341 339 337 336 335 334 334 334 334 334 334 331 329 329 326 325 325 328 327 327 327 326 326 325 325 326 327 328 327 326 327 328 327 329
326 327 328 328 340 344 344 344 341 338 337 336 335 336 336 335 334 333 331 330 329 329 327 326 325 326 327 324 326 326 327 326 325 325 324 325 326 326 324 327 327 328 329
325 328 329 332 341 344 344 341 336 336 336 337 336 335 335 334 333 331 331 330 330 325 327 327 326 327 326 326 326 326 327 327 326 318 319 324 326 321 326 328 328 329 327
328 331 329 336 344 344 341 337 337 335 336 338 334 335 332 330 328 328 328 328 325 327 325 326 326 326 325 328 326 327 327 327 323 320 325 325 325 325 325 328 328 326 324
332 331 333 341 339 340 337 336 336 336 338 336 334 331 328 327 327 327 326 325 326 325 324 326 326 326 327 327 328 327 326 325 320 322 325 322 322 324 328 322 328 326 326
332 331 341 338 339 337 337 336 337 338 334 330 330 328 327 327 327 326 326 325 326 326 325 326 326 328 327 325 325 327 326 324 320 323 323 322 326 327 328 328 327 328 327
339 340 338 340 337 337 337 338 334 331 329 327 328 330 330 328 328 326 328 325 327 327 325 326 327 326 326 325 326 326 326 320 321 322 324 327 327 327 328 327 328 329 327
342 342 339 337 339 338 336 328 325 327 327 328 329 329 330 330 329 328 328 327 326 327 325 326 327 326 325 325 326 325 324 321 324 322 326 326 326 326 327 327 327 328 326
339 340 340 339 336 330 327 327 328 330 330 329 328 330 330 330 329 328 327 327 328 327 326 326 327 327 327 326 325 325 320 323 322 323 324 326 325 324 326 327 327 326 326
339 334 331 329 327 328 328 329 329 330 330 328 328 329 329 329 328 328 327 327 327 327 326 326 327 326 325 326 324 324 320 321 323 323 325 325 326 326 325 327 325 325 326
331 327 326 328 329 328 328 329 330 328 326 327 326 327 328 329 328 327 326 326 327 327 327 326 326 325 325 324 323 324 322 322 325 324 321 325 324 325 325 325 325 324 325
325 327 329 328 327 328 328 328 325 327 328 327 326 327 327 326 325 325 326 326 326 327 327 326 325 325 325 324 323 324 322 321 322 323 324 323 324 325 324 324 324 325 325
Wind_Speed
28 27 28 27 26 24 26 26 25 25 26 26 25 24 24 23 22 18 16 16 16 14 13 11 11 12 13 13 9 10 13 14 16 17 17 18 18 18 19 19 19 17 15
30 30 30 30 28 24 26 25 25 25 25 26 26 25 24 24 23 21 18 17 17 15 14 12 10 11 13 15 13 11 13 15 16 16 18 18 16 18 19 20 19 18 16
28 30 29 29 27 22 24 23 23 23 24 23 25 24 22 21 22 21 20 17 17 16 14 11 12 16 15 15 14 13 12 15 17 16 17 17 16 15 17 18 18 17 16
25 27 28 28 25 21 22 23 22 21 22 21 21 19 18 18 18 18 17 17 18 16 14 14 18 18 17 19 16 14 13 16 17 18 17 17 17 16 17 19 18 17 16
27 28 27 27 25 22 25 23 23 21 21 20 20 17 17 16 14 14 15 15 15 17 17 18 19 20 20 19 17 15 13 13 18 19 20 19 17 17 17 18 18 19 14
34 28 25 26 25 26 28 25 25 23 21 20 19 18 17 16 13 12 13 15 17 17 18 18 15 16 16 16 18 17 15 15 15 20 21 20 19 18 18 18 18 19 15
41 26 25 27 27 30 28 26 26 25 23 22 19 20 19 17 15 13 13 15 18 16 17 17 17 16 16 17 17 19 17 16 16 18 21 22 20 17 18 17 19 20 16
34 28 26 28 29 32 29 27 26 25 24 23 21 18 14 16 16 15 16 18 18 18 19 20 20 18 17 17 18 18 18 16 16 16 20 24 22 19 17 17 19 19 17
37 29 27 31 31 33 31 28 26 25 23 21 20 17 5 8 6 9 13 18 18 18 16 16 18 17 18 18 17 17 18 17 18 17 19 23 23 19 17 16 19 18 18
38 32 31 33 33 33 30 28 27 24 22 22 19 22 21 14 5 4 5 10 10 10 15 12 13 16 17 18 17 18 17 17 16 16 17 20 22 19 16 16 17 16 16
33 31 35 34 31 31 27 24 24 22 21 19 20 16 19 22 22 21 15 14 12 9 8 9 11 13 15 18 18 18 17 19 17 15 14 17 19 18 16 14 16 15 13
29 32 34 31 28 28 26 25 19 20 16 15 15 18 19 20 22 23 23 20 18 13 9 10 12 16 17 18 17 15 14 17 19 15 15 15 17 17 15 14 14 13 13
32 32 31 28 26 24 24 21 18 16 15 17 16 17 18 19 16 18 18 18 15 10 9 11 12 13 13 12 11 12 14 16 16 16 18 17 16 16 14 13 14 13 13
29 28 26 24 22 18 19 18 17 15 14 16 15 16 15 14 15 18 19 16 14 10 11 12 11 10 8 7 10 12 12 18 16 15 17 16 15 14 13 13 15 14 13
31 27 25 23 18 17 18 18 17 14 14 16 14 14 13 13 14 17 17 14 11 9 13 10 9 6 5 5 9 9 13 13 14 15 15 14 14 14 15 12 14 14 15
30 26 24 21 19 19 19 17 14 14 14 14 15 15 13 13 14 13 11 10 9 11 11 6 7 6 6 6 9 9 15 16 14 13 13 14 13 14 17 16 15 15 14
28 24 22 22 20 21 19 16 15 15 14 16 14 11 11 12 12 11 10 11 11 10 10 9 8 7 5 7 9 16 19 18 13 12 12 14 15 15 16 19 18 18 16
24 22 20 21 21 19 17 17 16 17 17 15 13 13 12 12 12 10 9 9 8 8 8 9 9 8 5 9 11 13 17 16 14 13 13 13 14 17 15 18 13 19 11
23 21 20 22 19 18 16 15 17 16 15 12 11 12 12 12 11 10 9 8 9 7 7 8 12 11 13 12 14 15 16 15 15 15 15 15 14 16 17 17 20 16 12
22 22 22 20 22 19 18 18 17 14 12 11 12 12 11 10 10 9 9 10 10 6 6 8 10 14 18 17 14 16 16 14 15 16 16 16 15 15 17 17 15 16 13
20 23 24 22 21 20 19 19 15 12 11 12 13 14 12 10 8 8 9 11 11 7 7 10 13 15 18 17 18 17 17 17 17 16 16 17 17 17 17 15 15 19 13
23 22 23 24 20 20 18 12 10 10 11 11 11 13 14 12 11 10 11 10 8 6 9 12 14 15 17 18 18 17 17 18 18 17 16 19 17 16 16 16 18 17 15
26 26 24 24 23 17 16 12 11 10 8 9 11 13 14 15 13 13 13 14 10 7 4 7 11 14 15 16 17 18 19 20 19 18 17 17 17 16 14 15 14 13 12
28 25 23 21 19 16 14 12 11 10 10 10 10 10 11 13 15 16 16 16 13 11 9 9 9 4 10 13 14 16 19 18 18 18 20 19 16 18 15 16 16 13 14
27 24 22 19 17 15 12 11 11 10 8 8 7 8 9 12 15 15 15 16 14 13 12 11 10 8 6 8 13 17 20 20 22 21 18 17 16 17 18 16 16 14 14
26 22 19 18 13 10 11 11 9 8 8 7 8 10 11 10 12 12 15 15 13 14 14 14 13 11 10 10 9 14 19 21 21 17 21 16 19 17 16 19 17 16 17
Wind_Direction
256 261 265 265 267 269 272 271 272 272 275 274 272 271 267 266 266 264 258 246 252 265 275 273 266 275 285 293 295 282 250 237 235 231 228 230 233 227 226 221 223 222 237
268 267 269 271 271 275 276 275 275 274 273 274 273 270 269 266 266 265 260 250 248 263 266 270 272 282 283 290 287 283 258 238 231 228 228 229 231 229 227 223 219 222 226
268 270 269 270 270 274 272 272 272 270 270 273 274 272 270 269 268 266 258 247 243 256 259 262 277 282 276 292 287 276 267 242 231 227 228 229 232 226 223 221 222 226 230
263 266 267 270 270 267 267 269 269 268 268 271 274 276 273 270 270 269 257 243 237 247 252 252 281 269 268 285 277 275 273 246 232 228 230 232 231 227 224 224 225 225 235
260 262 268 274 273 268 266 267 269 266 267 271 273 274 270 266 271 264 237 235 230 248 248 256 272 270 264 271 265 269 272 255 232 229 228 233 233 230 227 226 223 220 232
257 259 266 275 278 273 267 268 269 270 268 269 266 265 260 259 263 254 233 234 239 258 259 267 276 264 261 258 260 262 270 259 242 230 229 228 231 228 228 225 223 224 234
253 259 267 272 274 274 275 272 268 267 268 266 262 262 257 256 258 254 240 237 253 258 259 261 267 272 255 255 264 259 259 260 248 236 230 229 227 228 231 227 228 232 229
258 260 266 271 274 275 274 274 271 271 270 262 253 259 265 260 257 256 244 248 254 259 258 262 264 263 251 254 262 260 254 252 250 240 230 229 226 227 232 233 231 229 232
259 259 267 270 273 277 278 276 275 275 272 266 249 239 214 225 225 243 240 247 254 259 264 263 253 254 255 251 258 257 252 248 245 252 229 226 222 224 228 231 231 227 234
265 258 264 266 269 274 272 274 272 273 269 262 242 236 232 240 225 208 214 246 227 246 279 269 258 255 249 250 254 261 247 244 244 246 224 217 214 218 225 230 227 226 226
259 251 258 261 264 267 261 271 266 262 266 261 238 236 238 242 250 253 274 262 258 284 273 271 264 261 258 260 263 258 244 234 233 235 226 210 210 215 224 225 219 214 217
243 250 253 256 264 268 259 260 252 253 264 255 243 247 243 244 249 253 257 262 274 276 273 277 280 274 269 267 258 246 236 230 213 220 216 209 214 217 222 221 216 207 199
243 249 251 258 268 268 254 240 236 239 243 243 242 241 243 249 250 254 258 258 270 255 266 279 288 282 274 263 245 227 219 210 212 214 210 206 211 214 217 211 201 200 189
249 251 252 256 262 249 230 224 224 234 234 238 231 233 239 240 246 251 253 257 251 249 273 292 282 281 266 240 225 208 215 200 199 200 204 206 209 207 205 204 194 190 197
248 249 248 253 242 231 221 221 223 230 236 229 227 228 231 233 229 235 244 250 247 253 280 288 256 265 241 215 194 187 194 186 186 189 197 197 193 198 184 187 192 191 185
251 246 240 241 229 222 217 216 223 214 208 216 219 222 227 226 227 230 224 224 238 261 252 264 235 243 216 213 219 198 195 187 185 194 193 189 183 186 181 188 188 183 175
252 238 233 228 222 216 213 218 209 203 208 209 210 218 218 217 219 220 229 236 246 250 245 245 229 219 225 268 205 205 191 190 187 191 184 185 183 178 182 188 185 174 168
231 220 226 216 211 216 218 199 200 202 206 206 214 215 209 211 220 215 216 225 230 231 239 231 216 201 192 161 157 155 170 185 189 183 177 180 180 172 187 176 192 170 172
209 213 211 207 210 216 194 200 205 203 205 206 208 212 219 215 208 211 215 225 215 226 229 228 212 198 174 159 160 158 164 170 173 173 174 173 173 175 172 172 185 183 196
213 210 196 202 211 199 191 193 191 189 193 204 212 210 211 215 222 219 226 218 215 228 227 209 199 185 182 171 174 173 170 169 168 169 173 168 167 169 175 175 182 190 180
188 193 196 193 183 182 186 179 179 196 212 205 205 210 212 215 226 221 223 212 214 218 204 185 180 187 184 185 182 176 175 169 168 170 163 158 162 169 176 189 193 196 184
186 183 176 170 176 174 173 171 183 176 184 199 212 219 223 226 220 215 208 206 217 227 207 193 190 188 178 181 180 179 180 168 155 165 164 163 170 174 183 185 183 199 192
163 166 167 168 168 168 165 173 183 199 212 227 234 231 229 223 216 203 201 195 200 201 217 224 199 195 193 193 187 181 180 181 174 164 167 172 176 177 186 183 191 205 210
156 157 163 162 160 165 179 191 205 217 235 241 231 221 216 204 199 198 198 193 191 192 185 203 214 245 231 212 201 190 180 180 165 170 180 172 184 191 190 198 192 209 218
157 158 160 164 175 180 188 203 216 221 223 214 204 199 195 194 196 186 193 201 196 191 183 188 184 190 187 201 204 190 180 175 170 176 180 191 186 193 198 192 208 220 221
157 161 165 163 168 188 198 200 201 201 196 187 170 168 169 173 185 187 197 198 203 194 191 190 188 183 176 194 218 204 192 186 183 181 191 204 195 193 203 212 222 225 225